This demonstration page uses our WeatherBlox Daily Observations layout. Learn more.

Left ArrowRight Arrow

41.12389, -100.76542

Hourly Observations for January 14, 2018

Temp ( °F °C ) Dew Point ( °F °C ) Humidity (%) Winds ( mph kmh ) Pressure ( in mb ) Visibility ( mi km ) Precip ( " mm )
12:53 am 00:53 Cloudy 25 -3.9 21 -6.1 85 85 NW 3 6 30.39 1029 10 16 0.00 0.00
1:33 am 01:33 Cloudy 24 -4.4 20 -6.7 84 84 W 5 7 30.39 1029 10 16 0.00 0.00
1:53 am 01:53 Cloudy 23 -5 19 -7.2 85 85 WNW 7 11 30.37 1028 10 16 0.00 0.00
2:53 am 02:53 Clear 20 -6.7 17 -8.3 89 89 NNW 5 7 30.38 1029 8 13 0.00 0.00
3:23 am 03:23 Clear with Mist and Fog 19 -7.2 16 -8.9 88 88 W 5 7 30.45 1031 2 3 0.00 0.00
3:38 am 03:38 Mostly Clear with Freezing Fog 15 -9.4 14 -10 95 95 NW 5 7 30.48 1032 1 1 0.00 0.00
3:53 am 03:53 Mostly Cloudy with Mist and Fog 15 -9.4 13 -10.6 91 91 NW 5 7 30.40 1030 2 3 0.00 0.00
4:00 am 04:00 Mostly Cloudy with Mist and Fog 16 -8.9 14 -10 92 92 NW 5 7 30.48 1032 5 8 0.00 0.00
4:53 am 04:53 Partly Cloudy 21 -6.1 16 -8.9 81 81 NW 7 11 30.40 1029 10 16 0.00 0.00
5:53 am 05:53 Mostly Cloudy 23 -5 19 -7.2 85 85 WNW 7 11 30.39 1029 10 16 0.00 0.00
6:53 am 06:53 Partly Cloudy 22 -5.6 19 -7.2 89 89 WNW 3 6 30.38 1029 10 16 0.00 0.00
7:21 am 07:21 Hazy 21 -6.1 16 -8.9 81 81 Calm 30.45 1031 2 2 0.00 0.00
7:25 am 07:25 Clear with Mist and Fog 19 -7.2 16 -8.9 88 88 Calm 30.45 1031 1 1 0.00 0.00
7:30 am 07:30 Mostly Cloudy with Freezing Fog 18 -7.8 14 -10 84 84 Calm 30.48 1032 0 0 0.00 0.00
7:53 am 07:53 Mostly Cloudy with Freezing Fog 15 -9.4 12 -11.1 88 88 Calm 30.40 1030 0 0 0.00 0.00
8:08 am 08:08 Sunny with Freezing Fog 18 -7.8 15 -9.4 88 88 W 3 6 30.48 1032 0 0 0.00 0.00
8:34 am 08:34 Hazy 18 -7.8 13 -10.6 81 81 Calm 30.48 1032 3 5 0.00 0.00
8:53 am 08:53 Sunny 21 -6.1 15 -9.4 78 78 NW 5 7 30.37 1029 9 14 0.00 0.00
9:53 am 09:53 Sunny 27 -2.8 22 -5.6 81 81 WNW 6 9 30.35 1028 10 16 0.00 0.00
10:53 am 10:53 Partly Cloudy 34 1.1 29 -1.7 82 82 W 10 17 30.33 1027 10 16 0.00 0.00
11:53 am 11:53 Sunny 38 3.3 30 -1.1 73 73 WNW 8 13 30.29 1026 10 16 0.00 0.00
12:53 pm 12:53 Mostly Sunny 40 4.4 30 -1.1 68 68 WNW 10 17 30.24 1024 10 16 0.00 0.00
1:53 pm 13:53 Partly Cloudy 41 5 31 -0.6 67 67 W 10 17 30.19 1022 10 16 0.00 0.00
2:53 pm 14:53 Cloudy 42 5.6 33 0.6 71 71 WNW 8 13 30.19 1022 10 16 0.00 0.00
3:53 pm 15:53 Cloudy 42 5.6 33 0.6 71 71 W 9 15 30.19 1022 10 16 0.00 0.00
4:53 pm 16:53 Cloudy 40 4.4 32 0 73 73 WNW 9 15 30.19 1022 10 16 0.00 0.00
5:53 pm 17:53 Mostly Clear 39 3.9 31 -0.6 73 73 NNW 8 13 30.20 1023 10 16 0.00 0.00
6:53 pm 18:53 Partly Cloudy 38 3.3 31 -0.6 76 76 NNW 12 19 30.23 1024 10 16 0.00 0.00
7:37 pm 19:37 Cloudy 37 2.8 31 -0.6 79 79 N 15 24 30.24 1024 10 16 0.00 0.00
7:53 pm 19:53 Cloudy with Light Snow 36 2.2 29 -1.7 76 76 N 14 22 30.27 1025 9 14 0.00 0.03
8:24 pm 20:24 Cloudy with Light Snow 35 1.7 29 -1.7 78 78 N 14 22 30.24 1024 3 4 0.00 0.03
8:37 pm 20:37 Cloudy with Light Snow 34 1.1 30 -1.1 85 85 N 13 20 30.30 1026 2 2 0.01 0.25
8:46 pm 20:46 Cloudy with Light Snow 33 0.6 30 -1.1 89 89 N 10 17 30.30 1026 2 2 0.01 0.25
8:53 pm 20:53 Cloudy with Light Snow 33 0.6 31 -0.6 92 92 NNW 13 20 30.30 1026 2 2 0.01 0.25
9:00 pm 21:00 Cloudy with Light Snow 33 0.6 30 -1.1 89 89 NNW 17 28 30.30 1026 1 2 0.01 0.25
9:09 pm 21:09 Cloudy with Light Snow 32 0 28 -2.2 85 85 N 15 24 30.30 1026 1 2 0.02 0.51
9:26 pm 21:26 Cloudy with Light Snow 32 0 28 -2.2 85 85 N 12 19 30.30 1026 2 3 0.02 0.51
9:38 pm 21:38 Cloudy with Light Snow 31 -0.6 27 -2.8 85 85 N 13 20 30.36 1028 4 6 0.02 0.51
9:53 pm 21:53 Cloudy with Light Snow 31 -0.6 26 -3.3 82 82 NNW 17 28 30.32 1027 8 13 0.02 0.51
10:13 pm 22:13 Cloudy with Light Snow 30 -1.1 25 -3.9 82 82 N 12 19 30.36 1028 4 6 0.00 0.03
10:22 pm 22:22 Cloudy with Light Wintry Mix 30 -1.1 24 -4.4 79 79 N 15 24 30.39 1029 9 14 0.00 0.03
10:53 pm 22:53 Cloudy 29 -1.7 23 -5 78 78 N 14 22 30.35 1028 10 16 0.00 0.03
11:53 pm 23:53 Cloudy 27 -2.8 20 -6.7 75 75 N 14 22 30.37 1028 10 16 0.00 0.03

Powered by AerisWeather